Change the Weather History Date:

Sunday, June 8, 2014

  Actual Average (KUIN) Record (KUIN)
Temperature  
Mean Temperature 68 °F 70 °F  
Max Temperature 76 °F 80 °F 97 °F (1934)
Min Temperature 60 °F 60 °F 40 °F (1913)
Degree Days  
Heating Degree Days 0 1  
Month to date heating degree days 10  
Since 1 June heating degree days 10  
Since 1 July heating degree days 5576  
Cooling Degree Days 3 6  
Month to date cooling degree days 41  
Year to date cooling degree days 127  
Since 1 June cooling degree days 41  
Growing Degree Days 18 (Base 50)    
Moisture  
Dew Point 60 °F    
Average Humidity 76    
Maximum Humidity 91    
Minimum Humidity 54    
Precipitation  
Precipitation 0.09 in 0.14 in 2.09 in (1984)
Month to date precipitation 1.17  
Year to date precipitation 15.26  
Sea Level Pressure  
Sea Level Pressure 29.99 in    
Wind  
Wind Speed 8 mph (NNW)    
Max Wind Speed 15 mph    
Max Gust Speed 17 mph    
Visibility 10 miles    
Events      
T = Trace of Precipitation, MM = Missing Value Source: NWS Daily Summary

Daily Weather History Graph

Daily Weather History Graph

Search for Another Location

Airport or City:

Trip Planner

Search our weather history database for the weather conditions in past years. The results will help you decide how hot, cold, wet, or windy it might be!

Date:

Astronomy

Jun. 08, 2014 Rise Set
Actual Time 5:35 AM CDT 8:29 PM CDT
Civil Twilight 5:03 AM CDT 9:01 PM CDT
Nautical Twilight 4:22 AM CDT 9:42 PM CDT
Astronomical Twilight 3:35 AM CDT 10:29 PM CDT
Moon 3:48 PM CDT (6/8) 2:27 AM CDT (6/8)
Length of Visible Light 15h 58m
Length of Day
14h 53m
Waxing Gibbous, 77% of the Moon is Illuminated
Jun 8
Waxing Gibbous
Jun 12
Full
Jun 19
Last Quarter
Jun 27
New
Jul 5
First Quarter

Hourly Weather History & Observations

Time (CDT) Temp. Dew Point Humidity Pressure Visibility Wind Dir Wind Speed Gust Speed Precip Events Conditions
12:15 AM 64.4 °F 59.7 °F 85% 29.88 in 10.0 mi NW 12.7 mph 17.3 mph N/A   Overcast
12:35 AM 64.4 °F 59.2 °F 83% 29.88 in 10.0 mi NNW 15.0 mph - N/A   Overcast
12:55 AM 64.4 °F 59.2 °F 83% 29.89 in 10.0 mi NW 12.7 mph 17.3 mph N/A   Overcast
1:15 AM 63.5 °F 59.0 °F 85% 29.89 in 10.0 mi NW 12.7 mph - N/A   Scattered Clouds
1:35 AM 63.0 °F 59.0 °F 87% 29.91 in 10.0 mi NW 10.4 mph - N/A   Clear
1:55 AM 62.8 °F 59.0 °F 87% 29.90 in 10.0 mi NW 11.5 mph 16.1 mph N/A   Scattered Clouds
2:15 AM 63.1 °F 59.2 °F 87% 29.91 in 10.0 mi NNW 11.5 mph 16.1 mph N/A   Mostly Cloudy
2:35 AM 63.0 °F 59.0 °F 87% 29.90 in 10.0 mi North 8.1 mph 17.3 mph N/A   Mostly Cloudy
2:55 AM 62.6 °F 58.6 °F 87% 29.90 in 10.0 mi NNW 10.4 mph - N/A   Scattered Clouds
3:15 AM 61.9 °F 58.5 °F 89% 29.91 in 10.0 mi NNW 6.9 mph - N/A   Clear
3:35 AM 61.7 °F 58.5 °F 89% 29.91 in 10.0 mi NNW 8.1 mph - N/A   Clear
3:55 AM 61.7 °F 58.3 °F 89% 29.92 in 10.0 mi NNW 6.9 mph - N/A   Clear
4:15 AM 61.3 °F 58.5 °F 90% 29.91 in 10.0 mi North 6.9 mph - N/A   Scattered Clouds
4:35 AM 61.7 °F 58.3 °F 89% 29.96 in 10.0 mi NW 5.8 mph - N/A   Scattered Clouds
4:55 AM 61.5 °F 58.3 °F 89% 29.98 in 7.0 mi WNW 4.6 mph - N/A   Scattered Clouds
5:15 AM 60.3 °F 57.6 °F 91% 29.96 in 5.0 mi NNW 5.8 mph - N/A   Scattered Clouds
5:35 AM 61.0 °F 58.3 °F 91% 29.99 in 7.0 mi WNW 5.8 mph - N/A   Scattered Clouds
5:55 AM 61.9 °F 58.8 °F 90% 30.00 in 7.0 mi NW 6.9 mph - N/A   Mostly Cloudy
6:15 AM 61.7 °F 58.5 °F 89% 30.01 in 7.0 mi NW 5.8 mph - N/A   Mostly Cloudy
6:35 AM 61.7 °F 58.3 °F 89% 30.01 in 7.0 mi NNW 5.8 mph - N/A   Mostly Cloudy
6:55 AM 61.9 °F 58.6 °F 89% 30.01 in 7.0 mi NNW 6.9 mph - N/A   Mostly Cloudy
7:15 AM 62.8 °F 59.0 °F 87% 30.00 in 10.0 mi North 6.9 mph - N/A   Scattered Clouds
7:35 AM 64.0 °F 59.0 °F 84% 30.02 in 10.0 mi NNW 6.9 mph - N/A   Clear
7:55 AM 64.6 °F 59.0 °F 82% 30.03 in 10.0 mi NNW 9.2 mph - N/A   Scattered Clouds
8:15 AM 65.8 °F 59.5 °F 80% 30.04 in 10.0 mi NNW 9.2 mph - N/A   Clear
8:35 AM 66.4 °F 59.7 °F 79% 30.03 in 10.0 mi North 8.1 mph - N/A   Clear
8:55 AM 67.8 °F 59.9 °F 76% 30.03 in 10.0 mi NNW 8.1 mph - N/A   Clear
9:15 AM 68.0 °F 60.8 °F 78% 30.03 in 10.0 mi NNW 6.9 mph - N/A   Clear
9:35 AM 68.9 °F 60.3 °F 74% 30.03 in 10.0 mi North 8.1 mph - N/A   Clear
9:55 AM 69.6 °F 61.0 °F 74% 30.03 in 10.0 mi North 9.2 mph - N/A   Clear
10:15 AM 70.3 °F 61.5 °F 74% 30.02 in 10.0 mi NNW 8.1 mph - N/A   Clear
10:35 AM 70.3 °F 61.2 °F 73% 30.02 in 10.0 mi North 8.1 mph - N/A   Clear
10:55 AM 71.1 °F 61.5 °F 72% 30.03 in 10.0 mi NNW 8.1 mph - N/A   Clear
11:15 AM 71.4 °F 61.2 °F 70% 30.04 in 10.0 mi NE 3.5 mph - N/A   Scattered Clouds
11:35 AM 73.0 °F 61.7 °F 67% 30.04 in 10.0 mi NNE 4.6 mph - N/A   Clear
12:15 PM 73.9 °F 61.0 °F 64% 30.04 in 10.0 mi ENE 5.8 mph - N/A   Clear
12:35 PM 74.5 °F 61.5 °F 64% 30.04 in 10.0 mi ENE 6.9 mph - N/A   Clear
12:55 PM 75.2 °F 60.8 °F 61% 30.04 in 10.0 mi East 4.6 mph - N/A   Scattered Clouds
1:15 PM 75.4 °F 60.6 °F 60% 30.05 in 10.0 mi ENE 3.5 mph - N/A   Scattered Clouds
1:35 PM 75.4 °F 59.7 °F 58% 30.04 in 10.0 mi ESE 4.6 mph - N/A   Clear
1:55 PM 75.2 °F 59.5 °F 58% 30.03 in 10.0 mi Calm Calm - N/A   Clear
2:15 PM 75.0 °F 59.4 °F 58% 30.03 in 10.0 mi SE 4.6 mph - N/A   Clear
2:35 PM 75.6 °F 58.3 °F 55% 30.03 in 10.0 mi Calm Calm - N/A   Clear
2:55 PM 75.0 °F 57.9 °F 55% 30.02 in 10.0 mi Calm Calm - N/A   Clear
3:15 PM 76.5 °F 59.7 °F 56% 30.02 in 10.0 mi Calm Calm - N/A   Clear
3:35 PM 75.7 °F 59.9 °F 58% 30.01 in 10.0 mi Calm Calm - N/A   Scattered Clouds
3:55 PM 74.8 °F 58.3 °F 56% 30.00 in 10.0 mi Calm Calm - N/A   Clear
4:15 PM 75.2 °F 58.6 °F 56% 30.00 in 10.0 mi Calm Calm - N/A   Clear
4:35 PM 75.2 °F 57.7 °F 54% 30.00 in 10.0 mi NNE 3.5 mph - N/A   Clear
4:55 PM 74.7 °F 58.8 °F 58% 30.00 in 10.0 mi Calm Calm - N/A   Clear
5:15 PM 74.8 °F 59.2 °F 58% 30.00 in 10.0 mi North 3.5 mph - N/A   Clear
5:35 PM 74.7 °F 59.2 °F 58% 30.00 in 10.0 mi Calm Calm - N/A   Clear
5:55 PM 74.3 °F 59.9 °F 61% 30.00 in 10.0 mi Calm Calm - N/A   Clear
6:15 PM 73.9 °F 61.7 °F 65% 29.99 in 10.0 mi Calm Calm - N/A   Clear
6:35 PM 73.8 °F 61.5 °F 65% 29.99 in 10.0 mi Calm Calm - N/A   Clear
6:55 PM 72.9 °F 63.3 °F 72% 29.99 in 10.0 mi North 3.5 mph - N/A   Clear
7:15 PM 72.0 °F 63.7 °F 75% 29.99 in 10.0 mi North 4.6 mph - N/A   Clear
7:35 PM 71.6 °F 64.2 °F 77% 30.00 in 10.0 mi NNW 3.5 mph - N/A   Clear
7:55 PM 70.7 °F 64.0 °F 79% 30.00 in 10.0 mi NW 4.6 mph - N/A   Clear
8:15 PM 70.0 °F 63.7 °F 80% 30.00 in 10.0 mi NW 4.6 mph - N/A   Clear
8:35 PM 69.3 °F 63.9 °F 83% 30.00 in 10.0 mi NW 3.5 mph - N/A   Clear
8:55 PM 68.9 °F 63.5 °F 83% 30.00 in 10.0 mi North 5.8 mph - N/A   Clear
9:15 PM 68.9 °F 63.1 °F 82% 30.00 in 10.0 mi North 6.9 mph - N/A   Clear
9:35 PM 68.9 °F 63.0 °F 81% 30.01 in 10.0 mi North 6.9 mph - N/A   Clear
9:55 PM 68.4 °F 62.6 °F 82% 30.01 in 10.0 mi North 8.1 mph - N/A   Clear
10:15 PM 68.4 °F 62.1 °F 80% 30.00 in 10.0 mi North 10.4 mph - N/A   Clear
10:35 PM 68.2 °F 61.7 °F 80% 30.00 in 10.0 mi North 9.2 mph - N/A   Clear
10:55 PM 67.6 °F 61.7 °F 81% 30.01 in 10.0 mi North 5.8 mph - N/A   Clear
11:15 PM 67.3 °F 61.7 °F 82% 30.00 in 10.0 mi NNE 4.6 mph - N/A   Clear
11:35 PM 66.7 °F 61.7 °F 84% 30.01 in 10.0 mi North 3.5 mph - N/A   Clear
11:55 PM 66.2 °F 61.3 °F 84% 30.01 in 10.0 mi North 3.5 mph - N/A   Clear